El Paso, TX

9:25 AM MDT on June 26, 2017 (GMT -0600)
El Paso International

Weather History for KELP - October, 2014

Change the Weather History Date:

Saturday, October 18, 2014

  Actual Average Record
Temperature  
Mean Temperature 70 °F 64 °F  
Max Temperature 79 °F 78 °F 92 °F (1991)
Min Temperature 61 °F 51 °F 33 °F (1966)
Degree Days  
Heating Degree Days 0 3  
Month to date heating degree days 5 25  
Since 1 July heating degree days 5 29  
Cooling Degree Days 5 2  
Month to date cooling degree days 92 69  
Year to date cooling degree days 2627 2315  
Growing Degree Days 20 (Base 50)    
Moisture  
Dew Point 50 °F    
Average Humidity 55    
Maximum Humidity 78    
Minimum Humidity 31    
Precipitation  
Precipitation 0.10 in 0.01 in 1.06 in (1907)
Month to date precipitation 0.10 0.37  
Year to date precipitation 7.46 8.20  
Snow  
Snow 0.00 in - - ()
Month to date snowfall 0.0  
Since 1 July snowfall 0.0  
Since 1 September snowfall 0.0  
Snow Depth 0.00 in    
Sea Level Pressure  
Sea Level Pressure 29.86 in    
Wind  
Wind Speed 9 mph (ENE)    
Max Wind Speed 20 mph    
Max Gust Speed 27 mph    
Visibility 10 miles    
Events Rain , Thunderstorm    
T = Trace of Precipitation, MM = Missing Value Source: NWS Daily Summary

Daily Weather History Graph

Daily Weather History Graph

Search for Another Location

Airport or City:

Trip Planner

Search our weather history database for the weather conditions in past years. The results will help you decide how hot, cold, wet, or windy it might be!

Date:

Astronomy

Oct. 18, 2014 Rise Set
Actual Time 7:11 AM MDT 6:29 PM MDT
Civil Twilight 6:46 AM MDT 6:54 PM MDT
Nautical Twilight 6:17 AM MDT 7:22 PM MDT
Astronomical Twilight 5:49 AM MDT 7:51 PM MDT
Moon 2:29 AM MDT (10/18) 3:35 PM MDT (10/18)
Length of Visible Light 12h 08m
Length of Day
11h 18m
Waning Crescent, 24% of the Moon is Illuminated
Oct 18
Waning Crescent
Oct 23
New
Oct 30
First Quarter
Nov 6
Full
Nov 14
Last Quarter

Hourly Weather History & Observations

Time (MDT) Temp. Dew Point Humidity Pressure Visibility Wind Dir Wind Speed Gust Speed Precip Events Conditions
12:51 AM 69.1 °F 46.0 °F 44% 29.80 in 10.0 mi NNE 11.5 mph - 0.00 in   Overcast
1:51 AM 70.0 °F 44.1 °F 39% 29.79 in 10.0 mi East 8.1 mph - N/A   Mostly Cloudy
2:51 AM 69.1 °F 50.0 °F 51% 29.78 in 10.0 mi East 9.2 mph 20.7 mph 0.00 in   Scattered Clouds
3:51 AM 69.1 °F 51.1 °F 53% 29.81 in 10.0 mi NNW 9.2 mph - 0.00 in   Overcast
4:51 AM 63.0 °F 55.9 °F 78% 29.82 in 10.0 mi Calm Calm - 0.03 in   Overcast
5:51 AM 62.1 °F 55.0 °F 78% 29.84 in 10.0 mi SE 6.9 mph - N/A   Mostly Cloudy
6:51 AM 63.0 °F 55.0 °F 75% 29.86 in 10.0 mi Calm Calm - 0.00 in Rain Light Rain
7:36 AM 62.1 °F 55.9 °F 80% 30.06 in 10.0 mi ENE 5.8 mph - 0.07 in Rain , Thunderstorm Light Thunderstorms and Rain
7:51 AM 62.1 °F 55.0 °F 78% 29.88 in 10.0 mi East 6.9 mph - 0.07 in Rain Light Rain
8:51 AM 64.9 °F 55.9 °F 73% 29.91 in 10.0 mi West 4.6 mph - 0.00 in   Scattered Clouds
9:51 AM 70.0 °F 53.1 °F 55% 29.91 in 10.0 mi Calm Calm - 0.00 in   Mostly Cloudy
10:51 AM 73.0 °F 54.0 °F 51% 29.90 in 10.0 mi Variable 3.5 mph - N/A   Mostly Cloudy
11:51 AM 75.9 °F 51.1 °F 42% 29.88 in 10.0 mi East 8.1 mph - N/A   Mostly Cloudy
12:51 PM 77.0 °F 46.9 °F 34% 29.87 in 10.0 mi ESE 15.0 mph - N/A   Scattered Clouds
1:51 PM 78.1 °F 46.0 °F 32% 29.83 in 10.0 mi East 10.4 mph 20.7 mph N/A   Scattered Clouds
2:51 PM 77.0 °F 46.0 °F 33% 29.82 in 10.0 mi East 15.0 mph - N/A   Mostly Cloudy
3:51 PM 78.1 °F 46.0 °F 32% 29.81 in 10.0 mi East 18.4 mph 26.5 mph N/A   Scattered Clouds
4:51 PM 77.0 °F 45.0 °F 32% 29.81 in 10.0 mi East 15.0 mph - N/A   Partly Cloudy
5:51 PM 75.0 °F 46.9 °F 37% 29.82 in 10.0 mi East 16.1 mph 23.0 mph N/A   Partly Cloudy
6:51 PM 71.1 °F 48.0 °F 44% 29.83 in 10.0 mi East 4.6 mph - N/A   Partly Cloudy
7:51 PM 66.9 °F 48.0 °F 51% 29.87 in 10.0 mi East 11.5 mph - N/A   Partly Cloudy
8:51 PM 66.9 °F 48.0 °F 51% 29.89 in 10.0 mi ENE 6.9 mph - N/A   Scattered Clouds
9:51 PM 66.0 °F 48.9 °F 54% 29.91 in 10.0 mi ENE 6.9 mph - N/A   Partly Cloudy
10:51 PM 66.9 °F 48.9 °F 52% 29.90 in 10.0 mi NE 10.4 mph - N/A   Partly Cloudy
11:51 PM 66.0 °F 48.9 °F 54% 29.88 in 10.0 mi NE 9.2 mph - N/A   Partly Cloudy